{"data":{"norad_id":63416,"intl_designator":"2025-065T","name":"STARLINK-33649","alt_names":[],"object_type":"PAYLOAD","status":"ACTIVE","operator":null,"country":"US","launch_date":"2025-03-31","launch_site_code":"AFETR","launch_vehicle":null,"mission":null,"orbit_class":"UNKNOWN","rcs_meters":null,"size_class":null,"mass_kg":null,"dimensions":null,"purposes":["comms"],"wikipedia_slug":null,"has_3d_model":false,"image_url":null,"decayed_at":null,"tle_current":{"epoch":"2026-09-20T19:30:59.974560Z","epoch_age_seconds":131837,"freshness":"FRESH","line1":"1 63416U 25065T   26263.81319415  .00013372  00000+0  49450-3 0  9999","line2":"2 63416  43.0025  84.8816 0000662 278.3836  81.6941 15.27585726 82683","mean_motion":15.27585726,"eccentricity":6.62e-5,"inclination_deg":43.0025,"raan_deg":84.8816,"arg_perigee_deg":278.3836,"mean_anomaly_deg":81.6941,"bstar":0.0004945,"rev_number":8268,"period_min":94.266395364315,"perigee_km":482.57774100478,"apogee_km":483.48615977381,"semimajor_km":6861.1689503893,"source":"CELESTRAK","updated_at":"2026-09-21T09:00:34.981217Z"}}}